Manchester, NH

7:20 PM EDT on July 25, 2017 (GMT -0400)
Manchester

Weather History for KMHT - October, 2012

Change the Weather History Date:

Wednesday, October 24, 2012

  Actual Average Record
Temperature  
Mean Temperature 48 °F 48 °F  
Max Temperature 60 °F 58 °F 80 °F (1979)
Min Temperature 37 °F 38 °F 18 °F (1969)
Degree Days  
Heating Degree Days 16 17  
Month to date heating degree days 319  
Since 1 July heating degree days 462  
Cooling Degree Days 0 0  
Month to date cooling degree days 0  
Year to date cooling degree days 638  
Moisture  
Dew Point 35 °F    
Average Humidity 67    
Maximum Humidity 100    
Minimum Humidity 35    
Precipitation  
Precipitation 0.00 in 0.13 in 2.21 in (1970)
Month to date precipitation 3.30  
Year to date precipitation 36.37  
Snow  
Snow 0.00 in - - ()
Month to date snowfall  
Since 1 July snowfall  
Snow Depth -    
Sea Level Pressure  
Sea Level Pressure 30.20 in    
Wind  
Wind Speed 2 mph (NW)    
Max Wind Speed 8 mph    
Max Gust Speed -    
Visibility 9 miles    
Events      
T = Trace of Precipitation, MM = Missing Value Source: NWS Daily Summary

Daily Weather History Graph

Daily Weather History Graph

Search for Another Location

Airport or City:

Trip Planner

Search our weather history database for the weather conditions in past years. The results will help you decide how hot, cold, wet, or windy it might be!

Date:

Astronomy

Oct. 24, 2012 Rise Set
Actual Time 7:10 AM EDT 5:48 PM EDT
Civil Twilight 6:41 AM EDT 6:17 PM EDT
Nautical Twilight 6:08 AM EDT 6:50 PM EDT
Astronomical Twilight 5:35 AM EDT 7:23 PM EDT
Moon 3:08 PM EDT (10/24) 1:55 AM EDT (10/24)
Length of Visible Light 11h 35m
Length of Day
10h 37m
Waxing Gibbous, 76% of the Moon is Illuminated
Oct 24
Waxing Gibbous
Oct 29
Full
Nov 6
Last Quarter
Nov 13
New
Nov 20
First Quarter

Hourly Weather History & Observations

Time (EDT) Temp. Windchill Dew Point Humidity Pressure Visibility Wind Dir Wind Speed Gust Speed Precip Events Conditions
12:53 AM 46.0 °F - 37.9 °F 73% 30.17 in 10.0 mi Calm Calm - N/A   Clear
1:53 AM 44.1 °F - 37.9 °F 79% 30.19 in 10.0 mi Calm Calm - N/A   Clear
2:53 AM 42.1 °F - 37.0 °F 82% 30.18 in 10.0 mi Calm Calm - N/A   Clear
3:53 AM 39.9 °F 37.8 °F 37.0 °F 89% 30.19 in 10.0 mi NW 3.5 mph - N/A   Clear
4:53 AM 39.9 °F - 37.0 °F 89% 30.21 in 10.0 mi Calm Calm - N/A   Clear
5:53 AM 39.9 °F 37.8 °F 36.0 °F 86% 30.22 in 10.0 mi North 3.5 mph - N/A   Scattered Clouds
6:26 AM 37.4 °F 33.8 °F 35.6 °F 93% 30.17 in 2.5 mi NNW 4.6 mph - N/A   Scattered Clouds
6:34 AM 37.4 °F 33.8 °F 35.6 °F 93% 30.18 in 1.2 mi NNW 4.6 mph - N/A   Scattered Clouds
6:39 AM 37.4 °F 33.8 °F 37.4 °F 100% 30.18 in 3.0 mi NW 4.6 mph - N/A   Partly Cloudy
6:53 AM 39.0 °F - 36.0 °F 89% 30.23 in 10.0 mi Calm Calm - N/A   Partly Cloudy
7:53 AM 39.0 °F 35.7 °F 35.1 °F 86% 30.25 in 10.0 mi North 4.6 mph - N/A   Clear
8:53 AM 43.0 °F 41.3 °F 35.1 °F 74% 30.24 in 10.0 mi Variable 3.5 mph - N/A   Clear
9:53 AM 48.0 °F - 36.0 °F 63% 30.24 in 10.0 mi Calm Calm - N/A   Clear
10:53 AM 53.1 °F - 28.0 °F 38% 30.23 in 10.0 mi Calm Calm - N/A   Clear
11:53 AM 54.0 °F - 28.9 °F 38% 30.22 in 10.0 mi Calm Calm - N/A   Partly Cloudy
12:53 PM 57.0 °F - 32.0 °F 39% 30.19 in 10.0 mi WSW 4.6 mph - N/A   Overcast
1:53 PM 57.9 °F - 30.9 °F 36% 30.17 in 10.0 mi Calm Calm - N/A   Mostly Cloudy
2:53 PM 57.9 °F - 30.9 °F 36% 30.16 in 10.0 mi Calm Calm - N/A   Mostly Cloudy
3:53 PM 60.1 °F - 32.0 °F 35% 30.15 in 10.0 mi Variable 4.6 mph - N/A   Partly Cloudy
4:53 PM 57.0 °F - 36.0 °F 45% 30.17 in 10.0 mi SSW 8.1 mph - N/A   Mostly Cloudy
5:53 PM 54.0 °F - 37.0 °F 53% 30.19 in 10.0 mi SSW 4.6 mph - N/A   Scattered Clouds
6:53 PM 53.1 °F - 37.0 °F 55% 30.20 in 10.0 mi Calm Calm - N/A   Mostly Cloudy
7:53 PM 53.1 °F - 37.9 °F 57% 30.22 in 10.0 mi Calm Calm - N/A   Overcast
8:53 PM 50.0 °F - 39.2 °F 66% 30.18 in 10.0 mi Calm Calm - N/A   Partly Cloudy
9:53 PM 48.9 °F - 39.0 °F 69% 30.24 in 10.0 mi Variable 3.5 mph - N/A   Clear
10:53 PM 45.0 °F - 37.9 °F 76% 30.25 in 10.0 mi Calm Calm - N/A   Clear
11:53 PM 43.0 °F - 37.9 °F 82% 30.25 in 10.0 mi Calm Calm - N/A   Clear